Location: Atherton
(17.2661°S, 145.4859°E)
Time: 23:17:58
(UTC+10:00)

Hubble Space Telescope - Pass Details

Date: 28 May 2025
Orbit: 488 x 491 km, 28.5° (Epoch: 15 June)

Event Time Altitude Azimuth Distance (km) Brightness Sun altitude
Rises 18:11:26 0° 254° (WSW) 2,557 5.2 -5.4°
Reaches altitude 10° 18:13:43 10° 261° (W) 1,674 4.4 -5.9°
Maximum altitude 18:17:22 41° 332° (NNW) 717 1.9 -6.7°
Drops below altitude 10° 18:21:01 10° 43° (NE) 1,667 3.1 -7.5°
Sets 18:23:18 0° 51° (NE) 2,545 3.9 -8.0°
